Location: Bothwell
(42.3833°S, 147.0000°E)
Time: 08:05:23
(UTC+11:00)

Oscar 19 - Pass Details

Date: 30 November 2023
Orbit: 771 x 789 km, 98.9° (Epoch: 26 February)

Event Time Altitude Azimuth Distance (km) Brightness Sun altitude
Rises 04:23:06 0° 32° (NNE) 3,279 13.8 -10.8°
Reaches altitude 10° 04:25:28 10° 38° (NE) 2,359 13.1 -10.5°
Maximum altitude 04:30:28 48° 110° (ESE) 1,042 11.8 -9.8°
Drops below altitude 10° 04:35:30 10° 183° (S) 2,389 13.7 -9.1°
Sets 04:37:55 0° 188° (S) 3,324 14.4 -8.8°
